This demonstration page uses our WeatherBlox Daily Observations layout. Learn more.

Left ArrowRight Arrow

Hourly Observations for May 24, 2021

Temp ( °F °C ) Dew Point ( °F °C ) Humidity (%) Winds ( mph kmh ) Pressure ( in mb ) Visibility ( mi km ) Precip ( " mm )
12:53 am 00:53 Clear 60 15.6 41 5 50 50 NNW 3 6 30.05 1018 10 16 0.00 0.00
1:53 am 01:53 Clear 58 14.4 41 5 53 53 Calm 30.06 1018 10 16 0.00 0.00
2:53 am 02:53 Clear 56 13.3 41 5 57 57 NE 3 6 30.06 1018 10 16 0.00 0.00
3:53 am 03:53 Clear 54 12.2 41 5 62 62 Calm 30.06 1018 10 16 0.00 0.00
4:53 am 04:53 Clear 52 11.1 41 5 66 66 N 3 6 30.06 1018 10 16 0.00 0.00
5:53 am 05:53 Sunny 52 11.1 41 5 66 66 Calm 30.07 1018 10 16 0.00 0.00
6:53 am 06:53 Sunny 56 13.3 43 6.1 62 62 N 3 6 30.09 1019 10 16 0.00 0.00
7:53 am 07:53 Sunny 63 17.2 44 6.7 50 50 N 3 6 30.09 1019 10 16 0.00 0.00
8:53 am 08:53 Sunny 68 20 43 6.1 40 40 Calm 30.09 1019 10 16 0.00 0.00
9:53 am 09:53 Sunny 73 22.8 42 5.6 33 33 Calm 30.07 1018 10 16 0.00 0.00
10:53 am 10:53 Sunny 76 24.4 39 3.9 26 26 Calm 30.06 1018 10 16 0.00 0.00
11:53 am 11:53 Sunny 77 25 39 3.9 26 26 Calm 30.04 1017 10 16 0.00 0.00
12:53 pm 12:53 Sunny 80 26.7 40 4.4 24 24 VRB 6 9 30.02 1017 10 16 0.00 0.00
1:53 pm 13:53 Sunny 82 27.8 39 3.9 22 22 SSW 3 6 29.99 1016 10 16 0.00 0.00
2:53 pm 14:53 Sunny 85 29.4 38 3.3 19 19 ESE 14 22 29.96 1015 10 16 0.00 0.00
3:53 pm 15:53 Sunny 88 31.1 39 3.9 18 18 S 15 24 29.93 1014 10 16 0.00 0.00
4:53 pm 16:53 Sunny 86 30 39 3.9 19 19 S 14 22 29.91 1013 10 16 0.00 0.00
5:53 pm 17:53 Sunny 84 28.9 39 3.9 20 20 S 10 17 29.89 1012 10 16 0.00 0.00
6:53 pm 18:53 Mostly Sunny 84 28.9 42 5.6 23 23 SSE 12 19 29.88 1012 10 16 0.00 0.00
7:53 pm 19:53 Sunny 82 27.8 41 5 23 23 WSW 12 19 29.88 1012 10 16 0.00 0.00
8:53 pm 20:53 Clear 78 25.6 40 4.4 26 26 VRB 5 7 29.90 1013 10 16 0.00 0.00
9:53 pm 21:53 Mostly Clear 75 23.9 41 5 29 29 WNW 9 15 29.93 1014 10 16 0.00 0.00
10:53 pm 22:53 Clear 73 22.8 43 6.1 34 34 WNW 7 11 29.96 1015 10 16 0.00 0.00
11:53 pm 23:53 Clear 71 21.7 43 6.1 36 36 NNW 9 15 29.96 1015 10 16 0.00 0.00

Powered by AerisWeather